Time,TemperatureF,DewpointF,PressureIn,WindDirection,WindDirectionDegrees,WindSpeedMPH,WindSpeedGustMPH,Humidity,HourlyPrecipIn,Conditions,Clouds,dailyrainin,SoftwareType,DateUTC
2013-10-01 00:01:00,56.8,49.0,29.83,WSW,238,0.0,0.0,75,0.00,,CLR,0.00,VWS V14.01,2013-10-01 07:01:00,
2013-10-01 00:06:00,56.8,49.0,29.83,WSW,238,0.0,0.0,75,0.00,,CLR,0.00,VWS V14.01,2013-10-01 07:06:00,
2013-10-01 00:11:00,56.8,49.0,29.83,WSW,238,0.0,0.0,75,0.00,,CLR,0.00,VWS V14.01,2013-10-01 07:11:00,
2013-10-01 00:16:00,56.8,48.7,29.83,WSW,238,0.0,0.0,74,0.00,,CLR,0.00,VWS V14.01,2013-10-01 07:16:00,
2013-10-01 00:21:00,56.7,48.5,29.83,WSW,238,0.0,0.0,74,0.00,,CLR,0.00,VWS V14.01,2013-10-01 07:21:00,
2013-10-01 00:26:00,56.7,48.1,29.83,WSW,238,0.0,0.0,73,0.00,,CLR,0.00,VWS V14.01,2013-10-01 07:26:00,
2013-10-01 00:31:00,56.7,48.1,29.83,WSW,238,0.0,0.0,73,0.00,,CLR,0.00,VWS V14.01,2013-10-01 07:31:00,
2013-10-01 00:36:00,56.5,47.9,29.83,WSW,238,0.0,0.0,73,0.00,,CLR,0.00,VWS V14.01,2013-10-01 07:36:00,
2013-10-01 00:41:00,56.5,47.9,29.83,WSW,238,0.0,0.0,73,0.00,,CLR,0.00,VWS V14.01,2013-10-01 07:41:00,
2013-10-01 00:46:00,56.3,47.8,29.83,WSW,238,0.0,0.0,73,0.00,,CLR,0.00,VWS V14.01,2013-10-01 07:46:00,
2013-10-01 00:51:00,56.3,47.8,29.83,WSW,238,0.0,0.0,73,0.00,,CLR,0.00,VWS V14.01,2013-10-01 07:51:00,
2013-10-01 00:56:00,55.9,47.4,29.83,WSW,238,0.0,0.0,73,0.00,,CLR,0.00,VWS V14.01,2013-10-01 07:56:00,
2013-10-01 01:01:00,55.8,47.2,29.83,WSW,238,0.0,0.0,73,0.00,,CLR,0.00,VWS V14.01,2013-10-01 08:01:00,
2013-10-01 01:06:00,55.8,47.2,29.83,WSW,238,0.0,0.0,73,0.00,,CLR,0.00,VWS V14.01,2013-10-01 08:06:00,
2013-10-01 01:11:00,55.4,46.9,29.83,WSW,238,0.0,0.0,73,0.00,,CLR,0.00,VWS V14.01,2013-10-01 08:11:00,
2013-10-01 01:16:00,55.4,46.9,29.83,WSW,238,0.0,0.0,73,0.00,,CLR,0.00,VWS V14.01,2013-10-01 08:16:00,
2013-10-01 01:21:00,54.9,46.4,29.83,WSW,238,0.0,0.0,73,0.00,,CLR,0.00,VWS V14.01,2013-10-01 08:21:00,
2013-10-01 01:26:00,54.7,46.2,29.83,WSW,238,0.0,0.0,73,0.00,,CLR,0.00,VWS V14.01,2013-10-01 08:26:00,
2013-10-01 01:31:00,54.5,46.0,29.83,WSW,238,0.0,0.0,73,0.00,,CLR,0.00,VWS V14.01,2013-10-01 08:31:00,
2013-10-01 01:36:00,54.5,45.7,29.83,WSW,238,0.0,0.0,72,0.00,,CLR,0.00,VWS V14.01,2013-10-01 08:36:00,
2013-10-01 01:41:00,54.5,45.7,29.83,WSW,238,0.0,0.0,72,0.00,,CLR,0.00,VWS V14.01,2013-10-01 08:41:00,
2013-10-01 01:46:00,55.0,45.1,29.83,WSW,238,0.0,0.0,69,0.00,,CLR,0.00,VWS V14.01,2013-10-01 08:46:00,
2013-10-01 01:51:00,55.0,45.1,29.83,WSW,238,0.0,0.0,69,0.00,,CLR,0.00,VWS V14.01,2013-10-01 08:51:00,
2013-10-01 01:56:00,55.0,45.1,29.83,WSW,238,0.0,0.0,69,0.00,,CLR,0.00,VWS V14.01,2013-10-01 08:56:00,
2013-10-01 02:02:00,55.2,45.6,29.83,WSW,238,0.0,0.0,70,0.00,,CLR,0.00,VWS V14.01,2013-10-01 09:02:00,
2013-10-01 02:07:00,55.2,45.6,29.83,WSW,238,0.0,0.0,70,0.00,,CLR,0.00,VWS V14.01,2013-10-01 09:07:00,
2013-10-01 02:12:00,55.4,45.8,29.83,WSW,238,0.0,0.0,70,0.00,,CLR,0.00,VWS V14.01,2013-10-01 09:12:00,
2013-10-01 02:17:00,55.4,45.8,29.83,WSW,238,0.0,0.0,70,0.00,,CLR,0.00,VWS V14.01,2013-10-01 09:17:00,
2013-10-01 02:22:00,55.4,45.8,29.83,WSW,238,0.0,0.0,70,0.00,,CLR,0.00,VWS V14.01,2013-10-01 09:22:00,
2013-10-01 02:27:00,54.7,45.8,29.83,WSW,238,0.0,0.0,72,0.00,,CLR,0.00,VWS V14.01,2013-10-01 09:27:00,
2013-10-01 02:32:00,54.5,45.7,29.83,WSW,238,0.0,0.0,72,0.00,,CLR,0.00,VWS V14.01,2013-10-01 09:32:00,
2013-10-01 02:37:00,53.8,45.0,29.83,WSW,238,0.0,0.0,72,0.00,,CLR,0.00,VWS V14.01,2013-10-01 09:37:00,
2013-10-01 02:42:00,53.6,44.8,29.83,WSW,238,0.0,0.0,72,0.00,,CLR,0.00,VWS V14.01,2013-10-01 09:42:00,
2013-10-01 02:47:00,53.1,44.3,29.83,WSW,238,0.0,0.0,72,0.00,,CLR,0.00,VWS V14.01,2013-10-01 09:47:00,
2013-10-01 02:52:00,52.7,44.3,29.83,WSW,238,0.0,0.0,73,0.00,,CLR,0.00,VWS V14.01,2013-10-01 09:52:00,
2013-10-01 02:57:00,52.7,44.3,29.83,WSW,238,0.0,0.0,73,0.00,,CLR,0.00,VWS V14.01,2013-10-01 09:57:00,
2013-10-01 03:02:00,52.7,44.3,29.83,WSW,238,0.0,0.0,73,0.00,,CLR,0.00,VWS V14.01,2013-10-01 10:02:00,
2013-10-01 03:07:00,52.7,44.3,29.83,WSW,238,0.0,0.0,73,0.00,,CLR,0.00,VWS V14.01,2013-10-01 10:07:00,
2013-10-01 03:12:00,52.7,44.3,29.83,WSW,238,0.0,0.0,73,0.00,,CLR,0.00,VWS V14.01,2013-10-01 10:12:00,
2013-10-01 03:17:00,52.2,44.1,29.83,WSW,238,0.0,0.0,74,0.00,,CLR,0.00,VWS V14.01,2013-10-01 10:17:00,
2013-10-01 03:22:00,52.2,44.1,29.83,WSW,238,0.0,0.0,74,0.00,,CLR,0.00,VWS V14.01,2013-10-01 10:22:00,
2013-10-01 03:27:00,52.2,44.1,29.83,WSW,238,0.0,0.0,74,0.00,,CLR,0.00,VWS V14.01,2013-10-01 10:27:00,
2013-10-01 03:32:00,52.2,44.1,29.83,WSW,238,0.0,0.0,74,0.00,,CLR,0.00,VWS V14.01,2013-10-01 10:32:00,
2013-10-01 03:37:00,52.2,44.1,29.83,WSW,238,0.0,0.0,74,0.00,,CLR,0.00,VWS V14.01,2013-10-01 10:37:00,
2013-10-01 03:42:00,52.0,44.0,29.83,WSW,238,0.0,0.0,74,0.00,,CLR,0.00,VWS V14.01,2013-10-01 10:42:00,
2013-10-01 03:47:00,51.8,44.1,29.83,WSW,238,0.0,0.0,75,0.00,,CLR,0.00,VWS V14.01,2013-10-01 10:47:00,
2013-10-01 03:52:00,51.8,44.1,29.83,WSW,238,0.0,0.0,75,0.00,,CLR,0.00,VWS V14.01,2013-10-01 10:52:00,
2013-10-01 03:57:00,51.8,44.1,29.83,WSW,238,0.0,0.0,75,0.00,,CLR,0.00,VWS V14.01,2013-10-01 10:57:00,
2013-10-01 04:02:00,51.8,44.1,29.83,WSW,238,0.0,0.0,75,0.00,,FEW010,0.00,VWS V14.01,2013-10-01 11:02:00,
2013-10-01 04:07:00,51.8,44.1,29.83,WSW,238,0.0,0.0,75,0.00,,FEW010,0.00,VWS V14.01,2013-10-01 11:07:00,
2013-10-01 04:12:00,51.8,44.1,29.83,WSW,238,0.0,0.0,75,0.00,,FEW010,0.00,VWS V14.01,2013-10-01 11:12:00,
2013-10-01 04:17:00,51.8,44.1,29.83,WSW,238,0.0,0.0,75,0.00,,FEW010,0.00,VWS V14.01,2013-10-01 11:17:00,
2013-10-01 04:22:00,51.6,44.3,29.83,WSW,238,0.0,0.0,76,0.00,,FEW010,0.00,VWS V14.01,2013-10-01 11:22:00,
2013-10-01 04:27:00,51.6,44.3,29.83,WSW,238,0.0,0.0,76,0.00,,FEW010,0.00,VWS V14.01,2013-10-01 11:27:00,
2013-10-01 04:32:00,51.6,44.3,29.83,WSW,238,0.0,0.0,76,0.00,,FEW010,0.00,VWS V14.01,2013-10-01 11:32:00,
2013-10-01 04:37:00,51.6,44.3,29.83,WSW,238,0.0,0.0,76,0.00,,FEW010,0.00,VWS V14.01,2013-10-01 11:37:00,
2013-10-01 04:42:00,51.6,44.3,29.83,WSW,238,0.0,0.0,76,0.00,,FEW010,0.00,VWS V14.01,2013-10-01 11:42:00,
2013-10-01 04:47:00,51.6,44.3,29.83,WSW,238,0.0,0.0,76,0.00,,FEW010,0.00,VWS V14.01,2013-10-01 11:47:00,
2013-10-01 04:52:00,51.8,44.5,29.83,WSW,238,0.0,0.0,76,0.00,,FEW010,0.00,VWS V14.01,2013-10-01 11:52:00,
2013-10-01 04:57:00,51.8,44.5,29.83,WSW,238,0.0,0.0,76,0.00,,FEW010,0.00,VWS V14.01,2013-10-01 11:57:00,
2013-10-01 05:02:00,51.6,44.7,29.83,WSW,238,0.0,0.0,77,0.00,,FEW010,0.00,VWS V14.01,2013-10-01 12:02:00,
2013-10-01 05:07:00,51.6,44.7,29.83,WSW,238,0.0,0.0,77,0.00,,FEW010,0.00,VWS V14.01,2013-10-01 12:07:00,
2013-10-01 05:12:00,51.6,44.7,29.83,WSW,238,0.0,0.0,77,0.00,,FEW010,0.00,VWS V14.01,2013-10-01 12:12:00,
2013-10-01 05:17:00,51.6,44.7,29.83,WSW,238,0.0,0.0,77,0.00,,FEW010,0.00,VWS V14.01,2013-10-01 12:17:00,
2013-10-01 05:22:00,51.6,44.7,29.83,WSW,238,0.0,0.0,77,0.00,,FEW010,0.00,VWS V14.01,2013-10-01 12:22:00,
2013-10-01 05:27:00,51.4,44.8,29.83,WSW,238,0.0,0.0,78,0.00,,FEW010,0.00,VWS V14.01,2013-10-01 12:27:00,
2013-10-01 05:32:00,51.4,44.8,29.83,WSW,238,0.0,0.0,78,0.00,,FEW010,0.00,VWS V14.01,2013-10-01 12:32:00,
2013-10-01 05:37:00,51.4,44.8,29.83,WSW,238,0.0,0.0,78,0.00,,FEW010,0.00,VWS V14.01,2013-10-01 12:37:00,
2013-10-01 05:42:00,51.4,44.8,29.83,WSW,238,0.0,0.0,78,0.00,,FEW010,0.00,VWS V14.01,2013-10-01 12:42:00,
2013-10-01 05:47:00,51.4,44.8,29.83,WSW,238,0.0,0.0,78,0.00,,FEW010,0.00,VWS V14.01,2013-10-01 12:47:00,
2013-10-01 05:52:00,51.4,44.8,29.83,WSW,238,0.0,0.0,78,0.00,,FEW010,0.00,VWS V14.01,2013-10-01 12:52:00,
2013-10-01 05:57:00,51.4,45.2,29.83,WSW,238,0.0,0.0,79,0.00,,FEW010,0.00,VWS V14.01,2013-10-01 12:57:00,
2013-10-01 06:02:00,51.6,45.3,29.83,WSW,238,0.0,0.0,79,0.00,,FEW010,0.00,VWS V14.01,2013-10-01 13:02:00,
2013-10-01 06:07:00,51.6,45.3,29.83,WSW,238,0.0,0.0,79,0.00,,FEW010,0.00,VWS V14.01,2013-10-01 13:07:00,
2013-10-01 06:12:00,51.6,45.3,29.83,WSW,238,0.0,0.0,79,0.00,,FEW010,0.00,VWS V14.01,2013-10-01 13:12:00,
2013-10-01 06:17:00,51.6,45.3,29.83,WSW,238,0.0,0.0,79,0.00,,FEW010,0.00,VWS V14.01,2013-10-01 13:17:00,
2013-10-01 06:22:00,51.6,45.7,29.83,WSW,238,0.0,0.0,80,0.00,,FEW010,0.00,VWS V14.01,2013-10-01 13:22:00,
2013-10-01 06:27:00,51.6,45.3,29.83,WSW,238,0.0,0.0,79,0.00,,FEW010,0.00,VWS V14.01,2013-10-01 13:27:00,
2013-10-01 06:32:00,51.6,45.3,29.83,WSW,238,0.0,0.0,79,0.00,,FEW010,0.00,VWS V14.01,2013-10-01 13:32:00,
2013-10-01 06:37:00,51.3,45.0,29.83,WSW,238,0.0,0.0,79,0.00,,FEW010,0.00,VWS V14.01,2013-10-01 13:37:00,
2013-10-01 06:42:00,51.3,45.0,29.83,WSW,238,0.0,0.0,79,0.00,,FEW010,0.00,VWS V14.01,2013-10-01 13:42:00,
2013-10-01 06:47:00,51.1,44.8,29.83,WSW,238,0.0,0.0,79,0.00,,FEW010,0.00,VWS V14.01,2013-10-01 13:47:00,
2013-10-01 06:52:00,51.1,45.1,29.83,WSW,238,0.0,0.0,80,0.00,,FEW010,0.00,VWS V14.01,2013-10-01 13:52:00,
2013-10-01 06:57:00,51.1,45.1,29.83,WSW,238,0.0,0.0,80,0.00,,FEW010,0.00,VWS V14.01,2013-10-01 13:57:00,
2013-10-01 07:02:00,50.9,44.6,29.83,WSW,238,0.0,0.0,79,0.00,,BKN180,0.00,VWS V14.01,2013-10-01 14:02:00,
2013-10-01 07:07:00,50.9,44.6,29.83,WSW,238,0.0,0.0,79,0.00,,BKN180,0.00,VWS V14.01,2013-10-01 14:07:00,
2013-10-01 07:12:00,50.9,45.0,29.83,WSW,238,0.0,0.0,80,0.00,,BKN180,0.00,VWS V14.01,2013-10-01 14:12:00,
2013-10-01 07:17:00,50.9,45.0,29.83,WSW,238,0.0,0.0,80,0.00,,BKN180,0.00,VWS V14.01,2013-10-01 14:17:00,
2013-10-01 07:22:00,50.9,45.0,29.83,WSW,238,0.0,0.0,80,0.00,,BKN180,0.00,VWS V14.01,2013-10-01 14:22:00,
2013-10-01 07:27:00,51.1,45.1,29.83,WSW,238,0.0,0.0,80,0.00,,BKN180,0.00,VWS V14.01,2013-10-01 14:27:00,
2013-10-01 07:32:00,51.1,45.1,29.83,WSW,238,0.0,0.0,80,0.00,,BKN180,0.00,VWS V14.01,2013-10-01 14:32:00,
2013-10-01 07:37:00,51.4,45.8,29.83,WSW,238,0.0,0.0,81,0.00,,BKN180,0.00,VWS V14.01,2013-10-01 14:37:00,
2013-10-01 07:42:00,51.6,46.0,29.83,WSW,238,0.0,0.0,81,0.00,,BKN180,0.00,VWS V14.01,2013-10-01 14:42:00,
2013-10-01 07:47:00,51.6,46.0,29.83,WSW,238,0.0,0.0,81,0.00,,BKN180,0.00,VWS V14.01,2013-10-01 14:47:00,
2013-10-01 07:52:00,52.2,46.5,29.83,WSW,238,0.0,0.0,81,0.00,,BKN180,0.00,VWS V14.01,2013-10-01 14:52:00,
2013-10-01 07:57:00,52.2,46.5,29.85,WSW,238,0.0,0.0,81,0.00,,BKN180,0.00,VWS V14.01,2013-10-01 14:57:00,
2013-10-01 08:02:00,52.3,46.7,29.85,WSW,238,0.0,0.0,81,0.00,,BKN180,0.00,VWS V14.01,2013-10-01 15:02:00,
2013-10-01 08:07:00,52.5,46.9,29.85,WSW,238,0.0,0.0,81,0.00,,BKN180,0.00,VWS V14.01,2013-10-01 15:07:00,
2013-10-01 08:12:00,52.9,47.2,29.85,WSW,238,0.0,0.0,81,0.00,,BKN180,0.00,VWS V14.01,2013-10-01 15:12:00,
2013-10-01 08:17:00,52.9,47.2,29.85,WSW,238,0.0,0.0,81,0.00,,BKN180,0.00,VWS V14.01,2013-10-01 15:17:00,
2013-10-01 08:22:00,53.2,47.6,29.85,WSW,238,0.0,0.0,81,0.00,,BKN180,0.00,VWS V14.01,2013-10-01 15:22:00,
2013-10-01 08:27:00,53.4,47.7,29.85,WSW,238,0.0,0.0,81,0.00,,BKN180,0.00,VWS V14.01,2013-10-01 15:27:00,
2013-10-01 08:32:00,53.8,48.1,29.85,WSW,238,0.0,0.0,81,0.00,,BKN180,0.00,VWS V14.01,2013-10-01 15:32:00,
2013-10-01 08:37:00,54.1,48.5,29.85,WSW,238,0.0,0.0,81,0.00,,BKN180,0.00,VWS V14.01,2013-10-01 15:37:00,
2013-10-01 08:42:00,54.1,48.5,29.85,WSW,238,0.0,0.0,81,0.00,,BKN180,0.00,VWS V14.01,2013-10-01 15:42:00,
2013-10-01 08:47:00,54.9,49.5,29.85,WSW,238,0.0,0.0,82,0.00,,BKN180,0.00,VWS V14.01,2013-10-01 15:47:00,
2013-10-01 08:52:00,55.0,49.7,29.85,WSW,238,0.0,0.0,82,0.00,,BKN180,0.00,VWS V14.01,2013-10-01 15:52:00,
2013-10-01 08:57:00,55.4,49.7,29.85,WSW,238,0.0,0.0,81,0.00,,BKN180,0.00,VWS V14.01,2013-10-01 15:57:00,
2013-10-01 09:02:00,55.8,49.7,29.85,WSW,238,0.0,0.0,80,0.00,,BKN180,0.00,VWS V14.01,2013-10-01 16:02:00,
2013-10-01 09:07:00,56.1,50.0,29.85,WSW,238,0.0,0.0,80,0.00,,SCT180,0.00,VWS V14.01,2013-10-01 16:07:00,
2013-10-01 09:12:00,56.3,49.9,29.85,WSW,238,0.0,0.0,79,0.00,,SCT180,0.00,VWS V14.01,2013-10-01 16:12:00,
2013-10-01 09:18:00,56.3,49.9,29.85,WSW,238,0.0,0.0,79,0.00,,SCT180,0.00,VWS V14.01,2013-10-01 16:18:00,
2013-10-01 09:23:00,56.7,47.8,29.85,WSW,238,0.0,0.0,72,0.00,,SCT180,0.00,VWS V14.01,2013-10-01 16:23:00,
2013-10-01 09:28:00,56.8,47.5,29.85,WSW,238,0.0,0.0,71,0.00,,SCT180,0.00,VWS V14.01,2013-10-01 16:28:00,
2013-10-01 09:31:00,56.8,47.5,29.85,WSW,238,0.0,0.0,71,0.00,,SCT180,0.00,VWS V14.01,2013-10-01 16:31:00,
2013-10-01 09:36:00,57.7,48.8,29.85,WSW,238,0.0,0.0,72,0.00,,SCT180,0.00,VWS V14.01,2013-10-01 16:36:00,
2013-10-01 09:41:00,57.9,49.0,29.85,WSW,238,0.0,0.0,72,0.00,,SCT180,0.00,VWS V14.01,2013-10-01 16:41:00,
2013-10-01 09:46:00,58.1,48.0,29.85,WSW,238,0.0,0.0,69,0.00,,SCT180,0.00,VWS V14.01,2013-10-01 16:46:00,
2013-10-01 09:51:00,58.5,48.7,29.85,WSW,238,0.0,0.0,70,0.00,,SCT180,0.00,VWS V14.01,2013-10-01 16:51:00,
2013-10-01 09:56:00,58.8,48.3,29.85,WSW,238,0.0,0.0,68,0.00,,SCT180,0.00,VWS V14.01,2013-10-01 16:56:00,
2013-10-01 10:01:00,59.2,48.6,29.85,WSW,238,0.0,0.0,68,0.00,,SCT180,0.00,VWS V14.01,2013-10-01 17:01:00,
2013-10-01 10:06:00,59.5,49.4,29.85,WSW,238,0.0,0.0,69,0.00,,SCT180,0.00,VWS V14.01,2013-10-01 17:06:00,
2013-10-01 10:11:00,60.1,48.7,29.85,WSW,237,0.0,0.0,66,0.00,,SCT180,0.00,VWS V14.01,2013-10-01 17:11:00,
2013-10-01 10:16:00,60.1,47.9,29.85,ENE,61,0.0,0.0,64,0.00,,SCT180,0.00,VWS V14.01,2013-10-01 17:16:00,
2013-10-01 10:21:00,60.8,47.7,29.85,East,88,0.0,0.0,62,0.00,,SCT180,0.00,VWS V14.01,2013-10-01 17:21:00,
2013-10-01 10:26:00,60.8,47.7,29.85,East,86,0.0,0.0,62,0.00,,SCT180,0.00,VWS V14.01,2013-10-01 17:26:00,
2013-10-01 10:31:00,63.7,42.5,29.85,ENE,67,0.0,0.0,46,0.00,,SCT180,0.00,VWS V14.01,2013-10-01 17:31:00,
2013-10-01 10:36:00,65.1,43.8,29.85,ESE,115,0.0,0.0,46,0.00,,SCT180,0.00,VWS V14.01,2013-10-01 17:36:00,
2013-10-01 10:41:00,68.0,40.8,29.85,ENE,78,0.0,0.0,37,0.00,,SCT180,0.00,VWS V14.01,2013-10-01 17:41:00,
2013-10-01 10:46:00,70.0,44.6,29.85,East,82,0.0,0.0,40,0.00,,SCT180,0.00,VWS V14.01,2013-10-01 17:46:00,
2013-10-01 10:51:00,70.0,44.6,29.85,ENE,77,0.0,0.0,40,0.00,,SCT180,0.00,VWS V14.01,2013-10-01 17:51:00,
2013-10-01 10:56:00,72.9,45.1,29.85,ENE,77,0.0,0.0,37,0.00,,SCT180,0.00,VWS V14.01,2013-10-01 17:56:00,
2013-10-01 11:01:00,73.4,43.3,29.85,East,83,0.0,0.0,34,0.00,,CLR,0.00,VWS V14.01,2013-10-01 18:01:00,
2013-10-01 11:06:00,73.4,43.3,29.85,ENE,57,0.0,0.0,34,0.00,,CLR,0.00,VWS V14.01,2013-10-01 18:06:00,
2013-10-01 11:11:00,75.6,42.8,29.85,East,92,0.0,0.0,31,0.00,,CLR,0.00,VWS V14.01,2013-10-01 18:11:00,
2013-10-01 11:16:00,75.6,42.8,29.85,ENE,61,0.0,0.0,31,0.00,,CLR,0.00,VWS V14.01,2013-10-01 18:16:00,
2013-10-01 11:21:00,75.4,40.0,29.85,ENE,75,0.0,0.0,28,0.00,,CLR,0.00,VWS V14.01,2013-10-01 18:21:00,
2013-10-01 11:26:00,75.2,39.9,29.85,East,84,0.0,0.0,28,0.00,,CLR,0.00,VWS V14.01,2013-10-01 18:26:00,
2013-10-01 11:31:00,75.2,39.9,29.85,ENE,69,0.0,0.0,28,0.00,,CLR,0.00,VWS V14.01,2013-10-01 18:31:00,
2013-10-01 11:36:00,76.5,40.0,29.85,WSW,240,0.0,0.0,27,0.00,,CLR,0.00,VWS V14.01,2013-10-01 18:36:00,
2013-10-01 11:41:00,77.7,40.1,29.85,WSW,240,0.0,0.0,26,0.00,,CLR,0.00,VWS V14.01,2013-10-01 18:41:00,
2013-10-01 11:46:00,80.1,40.1,29.85,ENE,61,0.0,0.0,24,0.00,,CLR,0.00,VWS V14.01,2013-10-01 18:46:00,
2013-10-01 11:51:00,80.8,40.7,29.85,SE,146,0.0,0.0,24,0.00,,CLR,0.00,VWS V14.01,2013-10-01 18:51:00,
2013-10-01 11:56:00,82.2,39.6,29.85,ENE,71,0.0,0.0,22,0.00,,CLR,0.00,VWS V14.01,2013-10-01 18:56:00,
2013-10-01 12:01:00,82.2,39.6,29.85,East,84,0.0,0.0,22,0.00,,BKN180,0.00,VWS V14.01,2013-10-01 19:01:00,
2013-10-01 12:06:00,84.6,41.6,29.85,ESE,120,0.0,0.0,22,0.00,,BKN180,0.00,VWS V14.01,2013-10-01 19:06:00,
2013-10-01 12:11:00,86.2,40.5,29.85,SE,144,0.0,0.0,20,0.00,,BKN180,0.00,VWS V14.01,2013-10-01 19:11:00,
2013-10-01 12:16:00,86.0,39.0,29.85,ESE,112,0.0,0.0,19,0.00,,BKN180,0.00,VWS V14.01,2013-10-01 19:16:00,
2013-10-01 12:21:00,85.6,40.0,29.85,ENE,73,0.0,0.0,20,0.00,,BKN180,0.00,VWS V14.01,2013-10-01 19:21:00,
2013-10-01 12:26:00,85.6,40.0,29.85,ENE,64,0.0,0.0,20,0.00,,BKN180,0.00,VWS V14.01,2013-10-01 19:26:00,
2013-10-01 12:31:00,85.3,39.7,29.85,ENE,67,0.0,0.0,20,0.00,,BKN180,0.00,VWS V14.01,2013-10-01 19:31:00,
2013-10-01 12:36:00,85.3,39.7,29.85,ENE,60,0.0,0.0,20,0.00,,BKN180,0.00,VWS V14.01,2013-10-01 19:36:00,
2013-10-01 12:41:00,87.1,39.9,29.85,ENE,78,0.0,0.0,19,0.00,,BKN180,0.00,VWS V14.01,2013-10-01 19:41:00,
2013-10-01 12:46:00,86.0,39.0,29.85,East,89,0.0,0.0,19,0.00,,BKN180,0.00,VWS V14.01,2013-10-01 19:46:00,
2013-10-01 12:51:00,86.0,39.0,29.85,SE,124,0.0,0.0,19,0.00,,BKN180,0.00,VWS V14.01,2013-10-01 19:51:00,
2013-10-01 12:56:00,82.8,37.6,29.85,East,95,0.0,0.0,20,0.00,,BKN180,0.00,VWS V14.01,2013-10-01 19:56:00,
2013-10-01 13:01:00,82.8,37.6,29.85,East,95,0.0,0.0,20,0.00,,BKN180,0.00,VWS V14.01,2013-10-01 20:01:00,
2013-10-01 13:06:00,80.6,37.1,29.85,East,82,2.7,2.7,21,0.00,,BKN180,0.00,VWS V14.01,2013-10-01 20:06:00,
2013-10-01 13:11:00,80.6,37.1,29.83,ENE,72,2.2,2.2,21,0.00,,BKN180,0.00,VWS V14.01,2013-10-01 20:11:00,
2013-10-01 13:16:00,80.6,37.1,29.83,East,88,0.0,0.0,21,0.00,,BKN180,0.00,VWS V14.01,2013-10-01 20:16:00,
2013-10-01 13:21:00,78.3,37.5,29.83,ENE,76,3.6,3.6,23,0.00,,BKN180,0.00,VWS V14.01,2013-10-01 20:21:00,
2013-10-01 13:26:00,77.9,36.0,29.83,ENE,63,0.0,0.0,22,0.00,,BKN180,0.00,VWS V14.01,2013-10-01 20:26:00,
2013-10-01 13:31:00,79.0,36.9,29.83,East,81,0.0,0.0,22,0.00,,BKN180,0.00,VWS V14.01,2013-10-01 20:31:00,
2013-10-01 13:36:00,79.0,36.9,29.83,ENE,66,4.0,4.0,22,0.00,,BKN180,0.00,VWS V14.01,2013-10-01 20:36:00,
2013-10-01 13:41:00,79.0,36.9,29.83,East,82,0.0,0.0,22,0.00,,BKN180,0.00,VWS V14.01,2013-10-01 20:41:00,
2013-10-01 13:46:00,79.0,36.9,29.83,SE,124,0.0,0.0,22,0.00,,BKN180,0.00,VWS V14.01,2013-10-01 20:46:00,
2013-10-01 13:51:00,79.7,37.5,29.83,SSE,154,0.0,0.0,22,0.00,,BKN180,0.00,VWS V14.01,2013-10-01 20:51:00,
2013-10-01 13:56:00,81.0,38.6,29.83,East,100,0.0,0.0,22,0.00,,BKN180,0.00,VWS V14.01,2013-10-01 20:56:00,
2013-10-01 14:01:00,81.3,37.7,29.83,East,91,2.7,2.7,21,0.00,,BKN180,0.00,VWS V14.01,2013-10-01 21:01:00,
2013-10-01 14:06:00,81.3,37.7,29.83,East,91,2.7,2.7,21,0.00,,BKN180,0.00,VWS V14.01,2013-10-01 21:06:00,
2013-10-01 14:11:00,81.3,37.7,29.83,East,94,3.1,3.1,21,0.00,,BKN180,0.00,VWS V14.01,2013-10-01 21:11:00,
2013-10-01 14:16:00,78.1,36.2,29.83,ENE,70,3.1,3.1,22,0.00,,BKN180,0.00,VWS V14.01,2013-10-01 21:16:00,
2013-10-01 14:21:00,79.3,36.0,29.83,East,87,4.9,4.9,21,0.00,,BKN180,0.00,VWS V14.01,2013-10-01 21:21:00,
2013-10-01 14:26:00,79.9,36.5,29.80,East,81,0.0,0.0,21,0.00,,BKN180,0.00,VWS V14.01,2013-10-01 21:26:00,
2013-10-01 14:31:00,82.0,37.0,29.80,East,81,0.0,0.0,20,0.00,,BKN180,0.00,VWS V14.01,2013-10-01 21:31:00,
2013-10-01 14:36:00,82.0,37.0,29.80,ENE,64,0.0,0.0,20,0.00,,BKN180,0.00,VWS V14.01,2013-10-01 21:36:00,
2013-10-01 14:41:00,82.0,37.0,29.80,East,83,0.0,3.6,20,0.00,,BKN180,0.00,VWS V14.01,2013-10-01 21:41:00,
2013-10-01 14:46:00,81.0,36.2,29.80,ENE,60,0.0,0.0,20,0.00,,BKN180,0.00,VWS V14.01,2013-10-01 21:46:00,
2013-10-01 14:51:00,81.0,36.2,29.80,NNE,27,0.0,2.7,20,0.00,,BKN180,0.00,VWS V14.01,2013-10-01 21:51:00,
2013-10-01 14:56:00,81.0,36.2,29.80,ENE,73,2.7,2.7,20,0.00,,BKN180,0.00,VWS V14.01,2013-10-01 21:56:00,
2013-10-01 15:01:00,80.2,36.8,29.80,East,88,3.1,3.1,21,0.00,,BKN180,0.00,VWS V14.01,2013-10-01 22:01:00,
2013-10-01 15:06:00,80.1,36.7,29.80,ENE,75,4.0,4.0,21,0.00,,BKN180,0.00,VWS V14.01,2013-10-01 22:06:00,
2013-10-01 15:11:00,80.1,36.7,29.80,East,80,0.0,0.0,21,0.00,,BKN180,0.00,VWS V14.01,2013-10-01 22:11:00,
2013-10-01 15:16:00,82.2,38.4,29.80,WSW,237,0.0,0.0,21,0.00,,BKN180,0.00,VWS V14.01,2013-10-01 22:16:00,
2013-10-01 15:21:00,82.2,38.4,29.80,South,182,0.0,0.0,21,0.00,,BKN180,0.00,VWS V14.01,2013-10-01 22:21:00,
2013-10-01 15:26:00,85.6,40.0,29.80,SE,126,0.0,0.0,20,0.00,,BKN180,0.00,VWS V14.01,2013-10-01 22:26:00,
2013-10-01 15:31:00,85.1,39.6,29.80,ESE,106,0.0,0.0,20,0.00,,BKN180,0.00,VWS V14.01,2013-10-01 22:31:00,
2013-10-01 15:36:00,83.7,39.6,29.80,East,90,0.0,0.0,21,0.00,,BKN180,0.00,VWS V14.01,2013-10-01 22:36:00,
2013-10-01 15:41:00,82.8,38.9,29.80,East,88,0.0,0.0,21,0.00,,BKN180,0.00,VWS V14.01,2013-10-01 22:41:00,
2013-10-01 15:47:00,82.2,38.4,29.80,SSW,213,0.0,0.0,21,0.00,,BKN180,0.00,VWS V14.01,2013-10-01 22:47:00,
2013-10-01 15:52:00,81.3,37.7,29.80,ESE,117,0.0,0.0,21,0.00,,BKN180,0.00,VWS V14.01,2013-10-01 22:52:00,
2013-10-01 15:57:00,79.2,35.9,29.80,ESE,102,0.0,0.0,21,0.00,,BKN180,0.00,VWS V14.01,2013-10-01 22:57:00,
2013-10-01 16:02:00,79.2,35.9,29.80,ENE,76,0.0,0.0,21,0.00,,BKN180,0.00,VWS V14.01,2013-10-01 23:02:00,
2013-10-01 16:07:00,77.7,35.9,29.77,ENE,64,3.6,3.6,22,0.00,,BKN180,0.00,VWS V14.01,2013-10-01 23:07:00,
2013-10-01 16:12:00,76.5,34.8,29.77,ENE,76,0.0,0.0,22,0.00,,BKN180,0.00,VWS V14.01,2013-10-01 23:12:00,
2013-10-01 16:17:00,76.3,34.7,29.77,East,79,0.0,0.0,22,0.00,,BKN180,0.00,VWS V14.01,2013-10-01 23:17:00,
2013-10-01 16:20:00,76.3,34.7,29.77,East,86,0.0,0.0,22,0.00,,BKN180,0.00,VWS V14.01,2013-10-01 23:20:00,
2013-10-01 16:25:00,76.5,36.0,29.77,East,86,0.0,0.0,23,0.00,,BKN180,0.00,VWS V14.01,2013-10-01 23:25:00,
2013-10-01 16:30:00,80.1,37.8,29.77,East,86,0.0,0.0,22,0.00,,BKN180,0.00,VWS V14.01,2013-10-01 23:30:00,
2013-10-01 16:35:00,81.5,37.8,29.77,SW,223,0.0,0.0,21,0.00,,BKN180,0.00,VWS V14.01,2013-10-01 23:35:00,
2013-10-01 16:40:00,82.9,39.0,29.77,ENE,77,0.0,0.0,21,0.00,,BKN180,0.00,VWS V14.01,2013-10-01 23:40:00,
2013-10-01 16:45:00,82.9,39.0,29.77,ENE,75,0.0,0.0,21,0.00,,BKN180,0.00,VWS V14.01,2013-10-01 23:45:00,
2013-10-01 16:50:00,85.1,39.6,29.77,East,86,0.0,0.0,20,0.00,,BKN180,0.00,VWS V14.01,2013-10-01 23:50:00,
2013-10-01 16:55:00,85.1,39.6,29.77,SE,128,0.0,0.0,20,0.00,,BKN180,0.00,VWS V14.01,2013-10-01 23:55:00,
2013-10-01 17:00:00,83.8,38.5,29.77,East,82,0.0,0.0,20,0.00,,BKN180,0.00,VWS V14.01,2013-10-02 00:00:00,
2013-10-01 17:05:00,83.8,38.5,29.77,East,82,0.0,0.0,20,0.00,,BKN180,0.00,VWS V14.01,2013-10-02 00:05:00,
2013-10-01 17:10:00,83.8,38.5,29.77,ESE,118,0.0,0.0,20,0.00,,BKN180,0.00,VWS V14.01,2013-10-02 00:10:00,
2013-10-01 17:15:00,86.5,39.4,29.77,ENE,66,0.0,0.0,19,0.00,,BKN180,0.00,VWS V14.01,2013-10-02 00:15:00,
2013-10-01 17:16:00,86.5,39.4,29.77,ENE,66,0.0,0.0,19,0.00,,BKN180,0.00,VWS V14.01,2013-10-02 00:16:00,
2013-10-01 17:21:00,86.5,39.4,29.77,South,169,0.0,0.0,19,0.00,,BKN180,0.00,VWS V14.01,2013-10-02 00:21:00,
2013-10-01 17:26:00,86.2,39.1,29.77,SSW,201,0.0,0.0,19,0.00,,BKN180,0.00,VWS V14.01,2013-10-02 00:26:00,
2013-10-01 17:31:00,84.0,37.4,29.77,SSW,193,0.0,0.0,19,0.00,,BKN180,0.00,VWS V14.01,2013-10-02 00:31:00,
2013-10-01 17:36:00,82.6,36.2,29.77,ENE,71,0.0,0.0,19,0.00,,BKN180,0.00,VWS V14.01,2013-10-02 00:36:00,
2013-10-01 17:41:00,81.5,36.6,29.77,SSW,193,0.0,0.0,20,0.00,,BKN180,0.00,VWS V14.01,2013-10-02 00:41:00,
2013-10-01 17:46:00,80.1,36.7,29.77,ENE,71,0.0,0.0,21,0.00,,BKN180,0.00,VWS V14.01,2013-10-02 00:46:00,
2013-10-01 17:51:00,79.2,35.9,29.77,South,190,3.6,3.6,21,0.00,,BKN180,0.00,VWS V14.01,2013-10-02 00:51:00,
2013-10-01 17:56:00,79.2,35.9,29.77,NE,51,0.0,0.0,21,0.00,,BKN180,0.00,VWS V14.01,2013-10-02 00:56:00,
2013-10-01 18:01:00,79.2,35.9,29.77,SSW,193,0.0,0.0,21,0.00,,BKN180,0.00,VWS V14.01,2013-10-02 01:01:00,
2013-10-01 18:06:00,81.9,36.9,29.77,SSW,205,0.0,0.0,20,0.00,,BKN180,0.00,VWS V14.01,2013-10-02 01:06:00,
2013-10-01 18:11:00,82.4,37.3,29.77,SSW,206,0.0,0.0,20,0.00,,BKN180,0.00,VWS V14.01,2013-10-02 01:11:00,
2013-10-01 18:16:00,82.4,37.3,29.77,SW,227,0.0,0.0,20,0.00,,BKN180,0.00,VWS V14.01,2013-10-02 01:16:00,
2013-10-01 18:21:00,79.5,36.2,29.77,SW,218,0.0,0.0,21,0.00,,BKN180,0.00,VWS V14.01,2013-10-02 01:21:00,
2013-10-01 18:26:00,79.5,36.2,29.77,SW,218,0.0,0.0,21,0.00,,BKN180,0.00,VWS V14.01,2013-10-02 01:26:00,
2013-10-01 18:31:00,76.1,34.5,29.77,SW,218,0.0,0.0,22,0.00,,BKN180,0.00,VWS V14.01,2013-10-02 01:31:00,
2013-10-01 18:36:00,75.0,34.7,29.77,SW,217,0.0,0.0,23,0.00,,BKN180,0.00,VWS V14.01,2013-10-02 01:36:00,
2013-10-01 18:41:00,75.0,34.7,29.74,SW,218,0.0,0.0,23,0.00,,BKN180,0.00,VWS V14.01,2013-10-02 01:41:00,
2013-10-01 18:46:00,73.0,36.2,29.74,SW,218,0.0,0.0,26,0.00,,BKN180,0.00,VWS V14.01,2013-10-02 01:46:00,
2013-10-01 18:51:00,73.0,36.2,29.74,SW,218,0.0,0.0,26,0.00,,BKN180,0.00,VWS V14.01,2013-10-02 01:51:00,
2013-10-01 18:56:00,73.0,36.2,29.77,SW,218,0.0,0.0,26,0.00,,BKN180,0.00,VWS V14.01,2013-10-02 01:56:00,
2013-10-01 19:01:00,70.7,37.8,29.77,SW,218,0.0,0.0,30,0.00,,BKN180,0.00,VWS V14.01,2013-10-02 02:01:00,
2013-10-01 19:06:00,70.7,37.8,29.77,SW,218,0.0,0.0,30,0.00,,BKN180,0.00,VWS V14.01,2013-10-02 02:06:00,
2013-10-01 19:11:00,70.7,37.8,29.77,SW,218,0.0,0.0,30,0.00,,BKN180,0.00,VWS V14.01,2013-10-02 02:11:00,
2013-10-01 19:16:00,70.7,37.8,29.77,SW,217,0.0,0.0,30,0.00,,BKN180,0.00,VWS V14.01,2013-10-02 02:16:00,
2013-10-01 19:21:00,67.1,37.8,29.77,SW,217,0.0,0.0,34,0.00,,BKN180,0.00,VWS V14.01,2013-10-02 02:21:00,
2013-10-01 19:26:00,66.9,37.7,29.77,SW,218,0.0,0.0,34,0.00,,BKN180,0.00,VWS V14.01,2013-10-02 02:26:00,
2013-10-01 19:31:00,66.9,37.7,29.77,SW,218,0.0,0.0,34,0.00,,BKN180,0.00,VWS V14.01,2013-10-02 02:31:00,
2013-10-01 19:36:00,66.9,37.7,29.77,SW,218,0.0,0.0,34,0.00,,BKN180,0.00,VWS V14.01,2013-10-02 02:36:00,
2013-10-01 19:41:00,65.5,37.1,29.77,SW,217,0.0,0.0,35,0.00,,BKN180,0.00,VWS V14.01,2013-10-02 02:41:00,
2013-10-01 19:46:00,65.5,37.1,29.77,SW,218,0.0,0.0,35,0.00,,BKN180,0.00,VWS V14.01,2013-10-02 02:46:00,
2013-10-01 19:51:00,64.9,36.7,29.77,SW,217,0.0,0.0,35,0.00,,BKN180,0.00,VWS V14.01,2013-10-02 02:51:00,
2013-10-01 19:56:00,64.9,36.7,29.77,SW,218,0.0,0.0,35,0.00,,BKN180,0.00,VWS V14.01,2013-10-02 02:56:00,
2013-10-01 20:01:00,64.9,36.7,29.77,SW,218,0.0,0.0,35,0.00,,SCT180,0.00,VWS V14.01,2013-10-02 03:01:00,
2013-10-01 20:06:00,63.7,37.0,29.77,SW,217,0.0,0.0,37,0.00,,SCT180,0.00,VWS V14.01,2013-10-02 03:06:00,
2013-10-01 20:11:00,63.7,37.0,29.77,SW,218,0.0,0.0,37,0.00,,SCT180,0.00,VWS V14.01,2013-10-02 03:11:00,
2013-10-01 20:16:00,63.0,38.3,29.77,SW,218,0.0,0.0,40,0.00,,SCT180,0.00,VWS V14.01,2013-10-02 03:16:00,
2013-10-01 20:21:00,63.0,38.3,29.77,SW,217,0.0,0.0,40,0.00,,SCT180,0.00,VWS V14.01,2013-10-02 03:21:00,
2013-10-01 20:26:00,63.0,38.3,29.77,SW,218,0.0,0.0,40,0.00,,SCT180,0.00,VWS V14.01,2013-10-02 03:26:00,
2013-10-01 20:31:00,61.2,39.1,29.77,SW,218,0.0,0.0,44,0.00,,SCT180,0.00,VWS V14.01,2013-10-02 03:31:00,
2013-10-01 20:36:00,61.2,39.1,29.77,SW,218,0.0,0.0,44,0.00,,SCT180,0.00,VWS V14.01,2013-10-02 03:36:00,
2013-10-01 20:41:00,60.3,39.4,29.77,SW,218,0.0,0.0,46,0.00,,SCT180,0.00,VWS V14.01,2013-10-02 03:41:00,
2013-10-01 20:46:00,60.3,39.4,29.77,SW,218,0.0,0.0,46,0.00,,SCT180,0.00,VWS V14.01,2013-10-02 03:46:00,
2013-10-01 20:51:00,59.7,39.5,29.77,SW,218,0.0,0.0,47,0.00,,SCT180,0.00,VWS V14.01,2013-10-02 03:51:00,
2013-10-01 20:56:00,59.2,40.0,29.77,South,183,0.0,0.0,49,0.00,,SCT180,0.00,VWS V14.01,2013-10-02 03:56:00,
2013-10-01 21:01:00,59.2,40.6,29.77,South,179,0.0,0.0,50,0.00,,SCT180,0.00,VWS V14.01,2013-10-02 04:01:00,
2013-10-01 21:06:00,58.8,40.2,29.77,South,179,0.0,0.0,50,0.00,,SCT180,0.00,VWS V14.01,2013-10-02 04:06:00,
2013-10-01 21:11:00,58.6,40.1,29.77,South,179,0.0,0.0,50,0.00,,SCT180,0.00,VWS V14.01,2013-10-02 04:11:00,
2013-10-01 21:16:00,58.5,40.4,29.77,South,179,0.0,0.0,51,0.00,,SCT180,0.00,VWS V14.01,2013-10-02 04:16:00,
2013-10-01 21:21:00,58.5,40.4,29.77,South,179,0.0,0.0,51,0.00,,SCT180,0.00,VWS V14.01,2013-10-02 04:21:00,
2013-10-01 21:26:00,58.1,40.6,29.77,South,179,0.0,0.0,52,0.00,,SCT180,0.00,VWS V14.01,2013-10-02 04:26:00,
2013-10-01 21:31:00,57.9,40.4,29.77,South,179,0.0,0.0,52,0.00,,SCT180,0.00,VWS V14.01,2013-10-02 04:31:00,
2013-10-01 21:36:00,57.7,40.2,29.77,South,179,0.0,0.0,52,0.00,,SCT180,0.00,VWS V14.01,2013-10-02 04:36:00,
2013-10-01 21:41:00,57.6,40.1,29.77,South,179,0.0,0.0,52,0.00,,SCT180,0.00,VWS V14.01,2013-10-02 04:41:00,
2013-10-01 21:46:00,57.4,39.9,29.77,South,179,0.0,0.0,52,0.00,,SCT180,0.00,VWS V14.01,2013-10-02 04:46:00,
2013-10-01 21:51:00,57.2,39.8,29.77,South,179,0.0,0.0,52,0.00,,SCT180,0.00,VWS V14.01,2013-10-02 04:51:00,
2013-10-01 21:56:00,57.2,40.2,29.77,South,179,0.0,0.0,53,0.00,,SCT180,0.00,VWS V14.01,2013-10-02 04:56:00,
2013-10-01 22:01:00,57.0,40.6,29.77,South,179,0.0,0.0,54,0.00,,FEW180,0.00,VWS V14.01,2013-10-02 05:01:00,
2013-10-01 22:06:00,57.0,40.6,29.77,South,179,0.0,0.0,54,0.00,,FEW180,0.00,VWS V14.01,2013-10-02 05:06:00,
2013-10-01 22:11:00,57.0,40.6,29.77,South,179,0.0,0.0,54,0.00,,FEW180,0.00,VWS V14.01,2013-10-02 05:11:00,
2013-10-01 22:16:00,56.8,40.4,29.77,South,179,0.0,0.0,54,0.00,,FEW180,0.00,VWS V14.01,2013-10-02 05:16:00,
2013-10-01 22:21:00,56.8,40.4,29.77,South,179,0.0,0.0,54,0.00,,FEW180,0.00,VWS V14.01,2013-10-02 05:21:00,
2013-10-01 22:26:00,56.7,40.2,29.77,South,179,0.0,0.0,54,0.00,,FEW180,0.00,VWS V14.01,2013-10-02 05:26:00,
2013-10-01 22:31:00,56.7,40.7,29.77,South,179,0.0,0.0,55,0.00,,FEW180,0.00,VWS V14.01,2013-10-02 05:31:00,
2013-10-01 22:36:00,56.7,40.7,29.77,South,179,0.0,0.0,55,0.00,,FEW180,0.00,VWS V14.01,2013-10-02 05:36:00,
2013-10-01 22:41:00,56.7,41.2,29.77,South,179,0.0,0.0,56,0.00,,FEW180,0.00,VWS V14.01,2013-10-02 05:41:00,
2013-10-01 22:46:00,56.7,41.2,29.77,South,179,0.0,0.0,56,0.00,,FEW180,0.00,VWS V14.01,2013-10-02 05:46:00,
2013-10-01 22:51:00,56.8,41.3,29.77,South,179,0.0,0.0,56,0.00,,FEW180,0.00,VWS V14.01,2013-10-02 05:51:00,
2013-10-01 22:56:00,56.8,41.3,29.77,South,179,0.0,0.0,56,0.00,,FEW180,0.00,VWS V14.01,2013-10-02 05:56:00,
2013-10-01 23:00:00,56.8,41.8,29.77,South,179,0.0,0.0,57,0.00,,CLR,0.00,VWS V14.01,2013-10-02 06:00:00,
2013-10-01 23:05:00,56.8,41.8,29.77,South,179,0.0,0.0,57,0.00,,CLR,0.00,VWS V14.01,2013-10-02 06:05:00,
2013-10-01 23:10:00,56.8,41.8,29.80,South,179,0.0,0.0,57,0.00,,CLR,0.00,VWS V14.01,2013-10-02 06:10:00,
2013-10-01 23:15:00,56.8,41.8,29.80,South,179,0.0,0.0,57,0.00,,CLR,0.00,VWS V14.01,2013-10-02 06:15:00,
2013-10-01 23:20:00,56.8,41.8,29.80,South,179,0.0,0.0,57,0.00,,CLR,0.00,VWS V14.01,2013-10-02 06:20:00,
2013-10-01 23:25:00,56.7,42.1,29.80,South,179,0.0,0.0,58,0.00,,CLR,0.00,VWS V14.01,2013-10-02 06:25:00,
2013-10-01 23:30:00,56.7,42.1,29.80,South,179,0.0,0.0,58,0.00,,CLR,0.00,VWS V14.01,2013-10-02 06:30:00,
2013-10-01 23:35:00,56.5,41.9,29.80,South,179,0.0,0.0,58,0.00,,CLR,0.00,VWS V14.01,2013-10-02 06:35:00,
2013-10-01 23:40:00,56.3,41.7,29.80,South,179,0.0,0.0,58,0.00,,CLR,0.00,VWS V14.01,2013-10-02 06:40:00,
2013-10-01 23:45:00,56.3,41.7,29.80,South,179,0.0,0.0,58,0.00,,CLR,0.00,VWS V14.01,2013-10-02 06:45:00,
2013-10-01 23:50:00,56.1,41.6,29.80,South,179,0.0,0.0,58,0.00,,CLR,0.00,VWS V14.01,2013-10-02 06:50:00,
2013-10-01 23:55:00,56.1,41.6,29.80,South,179,0.0,0.0,58,0.00,,CLR,0.00,VWS V14.01,2013-10-02 06:55:00,